Juneau, WI

9:06 PM CST on December 10, 2019 (GMT -0600)
Dodge County

Weather History for KUNU - October, 2019

Change the Weather History Date:

Saturday, October 19, 2019

  Actual Average Record
Temperature  
Mean Temperature 52 °F -  
Max Temperature 60 °F 55 °F 78 °F (2000)
Min Temperature 43 °F 39 °F 17 °F (1992)
Degree Days  
Heating Degree Days 14    
Growing Degree Days 2 (Base 50)    
Moisture  
Dew Point 44 °F    
Average Humidity 75    
Maximum Humidity 97    
Minimum Humidity 57    
Precipitation  
Precipitation 0.00 in - - ()
Sea Level Pressure  
Sea Level Pressure 29.78 in    
Wind  
Wind Speed 7 mph ()    
Max Wind Speed 14 mph    
Max Gust Speed 17 mph    
Visibility 10.0 miles    
Events      
Averages and records for this station are not official NWS values.
T = Trace of Precipitation, MM = Missing Value Source: Averaged Metar Reports

Daily Weather History Graph

Daily Weather History Graph

Search for Another Location

Airport or City:

Astronomy

Oct. 19, 2019 Rise Set
Actual Time 7:13 AM CDT 6:05 PM CDT
Civil Twilight 6:44 AM CDT 6:34 PM CDT
Nautical Twilight 6:11 AM CDT 7:07 PM CDT
Astronomical Twilight 5:38 AM CDT 7:40 PM CDT
Moon 10:06 PM CDT (10/19) 12:53 PM CDT (10/19)
Length of Visible Light 11h 49m
Length of Day
10h 52m
Waning Gibbous, 69% of the Moon is Illuminated
Oct 19
Waning Gibbous
Oct 21
Last Quarter
Oct 27
New
Nov 4
First Quarter
Nov 12
Full

Hourly Weather History & Observations

Time (CDT) Temp. Windchill Dew Point Humidity Pressure Visibility Wind Dir Wind Speed Gust Speed Precip Events Conditions
12:15 AM 46.6 °F - 40.1 °F 78% 29.85 in 10.0 mi SE 11.5 mph - N/A   Clear
12:35 AM 46.6 °F - 39.7 °F 77% 29.84 in 10.0 mi SE 9.2 mph 17.3 mph N/A   Clear
12:55 AM 46.6 °F - 39.7 °F 77% 29.84 in 10.0 mi SSE 10.4 mph - N/A   Clear
1:15 AM 46.9 °F - 39.7 °F 76% 29.85 in 10.0 mi SSE 9.2 mph - N/A   Clear
1:35 AM 46.2 °F 43.3 °F 39.6 °F 78% 29.85 in 10.0 mi SSE 5.8 mph - N/A   Clear
1:55 AM 45.9 °F 42.3 °F 39.4 °F 78% 29.85 in 10.0 mi SSE 6.9 mph - N/A   Clear
2:15 AM 45.3 °F 41.6 °F 39.6 °F 80% 29.85 in 10.0 mi SSE 6.9 mph - N/A   Clear
2:35 AM 44.8 °F 39.9 °F 39.6 °F 82% 29.84 in 10.0 mi SE 9.2 mph - N/A   Clear
2:55 AM 43.9 °F 39.9 °F 39.4 °F 84% 29.84 in 10.0 mi SE 6.9 mph - N/A   Clear
3:15 AM 45.0 °F 39.7 °F 39.9 °F 82% 29.83 in 10.0 mi SSE 10.4 mph - N/A   Clear
3:35 AM 45.0 °F 40.1 °F 39.7 °F 82% 29.83 in 10.0 mi SSE 9.2 mph - N/A   Clear
3:55 AM 44.6 °F 40.2 °F 39.6 °F 82% 29.83 in 10.0 mi SSE 8.1 mph - N/A   Clear
4:15 AM - - - N/A% 29.82 in 10.0 mi SSE 10.4 mph - N/A   Scattered Clouds
4:35 AM 44.6 °F 39.7 °F 39.6 °F 82% 29.82 in 10.0 mi SSE 9.2 mph - N/A   Clear
4:55 AM 45.5 °F 40.8 °F 39.6 °F 80% 29.82 in 10.0 mi SSE 9.2 mph - N/A   Clear
5:15 AM 45.5 °F 39.9 °F 39.7 °F 80% 29.81 in 10.0 mi SSE 11.5 mph - N/A   Clear
5:35 AM 45.9 °F 41.2 °F 40.1 °F 80% 29.81 in 10.0 mi SSE 9.2 mph - N/A   Clear
5:55 AM 46.9 °F - 40.1 °F 77% 29.81 in 10.0 mi SSE 10.4 mph 16.1 mph N/A   Clear
6:15 AM 46.9 °F - 40.1 °F 77% 29.81 in 10.0 mi SSE 9.2 mph 16.1 mph N/A   Clear
6:35 AM 47.3 °F - 40.3 °F 77% 29.80 in 10.0 mi SSE 9.2 mph - N/A   Clear
6:55 AM 46.9 °F - 40.3 °F 78% 29.80 in 10.0 mi SSE 9.2 mph - N/A   Clear
7:15 AM 46.4 °F 42.9 °F 40.3 °F 79% 29.80 in 10.0 mi SSE 6.9 mph - N/A   Clear
7:35 AM 46.4 °F 41.9 °F 40.5 °F 80% 29.79 in 10.0 mi SE 9.2 mph - N/A   Clear
7:55 AM 46.9 °F - 40.6 °F 79% 29.79 in 10.0 mi SE 9.2 mph - N/A   Clear
8:15 AM 47.3 °F - 41.0 °F 79% 29.78 in 10.0 mi SE 8.1 mph - N/A   Clear
8:35 AM 47.7 °F - 41.2 °F 78% 29.79 in 10.0 mi SE 6.9 mph - N/A   Clear
8:55 AM 48.4 °F - 41.5 °F 77% 29.79 in 10.0 mi SSE 6.9 mph - N/A   Clear
9:15 AM 50.0 °F - 41.7 °F 73% 29.78 in 10.0 mi SSE 9.2 mph - N/A   Clear
9:35 AM 50.9 °F - 41.9 °F 71% 29.79 in 10.0 mi South 9.2 mph - N/A   Clear
9:55 AM 50.9 °F - 41.4 °F 70% 29.78 in 10.0 mi SSE 11.5 mph - N/A   Clear
10:15 AM 52.9 °F - 42.1 °F 67% 29.78 in 10.0 mi South 13.8 mph 17.3 mph N/A   Clear
10:35 AM 53.6 °F - 41.9 °F 65% 29.78 in 10.0 mi South 10.4 mph - N/A   Clear
10:55 AM 54.5 °F - 42.6 °F 64% 29.77 in 10.0 mi South 9.2 mph - N/A   Clear
11:15 AM 55.0 °F - 42.8 °F 63% 29.77 in 10.0 mi South 9.2 mph - N/A   Clear
11:35 AM 55.9 °F - 43.3 °F 63% 29.77 in 10.0 mi South 6.9 mph - N/A   Clear
11:55 AM 57.0 °F - 43.9 °F 61% 29.76 in 10.0 mi South 8.1 mph - N/A   Clear
12:15 PM 58.1 °F - 44.1 °F 60% 29.75 in 10.0 mi SSE 9.2 mph - N/A   Clear
12:35 PM 59.2 °F - 44.6 °F 58% 29.75 in 10.0 mi SSE 6.9 mph - N/A   Clear
12:55 PM 58.6 °F - 44.6 °F 60% 29.73 in 10.0 mi SSE 6.9 mph - N/A   Clear
1:15 PM 59.4 °F - 44.6 °F 58% 29.73 in 10.0 mi South 5.8 mph - N/A   Clear
1:35 PM 59.9 °F - 44.8 °F 57% 29.73 in 10.0 mi SSW 8.1 mph - N/A   Clear
1:55 PM 60.4 °F - 45.0 °F 57% 29.73 in 10.0 mi SW 8.1 mph - N/A   Clear
2:15 PM 59.9 °F - 45.1 °F 58% 29.72 in 10.0 mi SSE 6.9 mph - N/A   Clear
2:35 PM 59.9 °F - 44.6 °F 57% 29.72 in 10.0 mi SSW 5.8 mph - N/A   Clear
2:55 PM 59.5 °F - 45.5 °F 60% 29.71 in 10.0 mi SSE 5.8 mph - N/A   Clear
3:15 PM 59.2 °F - 45.7 °F 61% 29.72 in 10.0 mi SSE 5.8 mph - N/A   Clear
3:35 PM 59.5 °F - 45.9 °F 61% 29.72 in 10.0 mi South 4.6 mph - N/A   Clear
3:55 PM 59.7 °F - 45.9 °F 60% 29.72 in 10.0 mi Calm Calm - N/A   Clear
4:15 PM 59.9 °F - 45.9 °F 60% 29.72 in 10.0 mi Calm Calm - N/A   Clear
4:35 PM 59.5 °F - 45.9 °F 61% 29.72 in 10.0 mi Calm Calm - N/A   Scattered Clouds
4:55 PM 59.4 °F - 46.0 °F 61% 29.73 in 10.0 mi SSW 3.5 mph - N/A   Mostly Cloudy
5:15 PM 58.6 °F - 46.4 °F 64% 29.73 in 10.0 mi Calm Calm - N/A   Overcast
5:35 PM 58.1 °F - 46.0 °F 64% 29.73 in 10.0 mi Calm Calm - N/A   Overcast
5:55 PM 56.8 °F - 46.9 °F 69% 29.73 in 10.0 mi Calm Calm - N/A   Overcast
6:15 PM 55.8 °F - 47.1 °F 73% 29.73 in 10.0 mi Calm Calm - N/A   Overcast
6:55 PM 53.6 °F - 47.3 °F 79% 29.74 in 10.0 mi Calm Calm - N/A   Overcast
7:15 PM 52.9 °F - 47.5 °F 82% 29.74 in 10.0 mi Calm Calm - N/A   Overcast
7:35 PM 52.0 °F - 48.2 °F 87% 29.75 in 10.0 mi NW 3.5 mph - N/A   Overcast
7:55 PM - - - N/A% 29.75 in 10.0 mi Calm Calm - N/A   Overcast
8:15 PM 51.1 °F - 48.7 °F 92% 29.75 in 10.0 mi Calm Calm - N/A   Overcast
8:35 PM 50.7 °F - 48.7 °F 93% 29.76 in 10.0 mi Calm Calm - N/A   Overcast
8:55 PM 50.4 °F - 48.6 °F 94% 29.75 in 10.0 mi Calm Calm - N/A   Overcast
9:15 PM 50.2 °F - 48.7 °F 95% 29.76 in 10.0 mi Calm Calm - N/A   Overcast
9:35 PM 50.2 °F - 48.7 °F 95% 29.76 in 10.0 mi Calm Calm - N/A   Overcast
9:55 PM 50.2 °F - 48.7 °F 95% 29.76 in 10.0 mi Calm Calm - N/A   Overcast
10:15 PM 50.0 °F - 48.7 °F 95% 29.76 in 10.0 mi Calm Calm - N/A   Overcast
10:35 PM 50.0 °F - 48.7 °F 95% 29.76 in 10.0 mi Calm Calm - N/A   Overcast
10:55 PM 50.0 °F - 48.6 °F 95% 29.77 in 10.0 mi Calm Calm - N/A   Overcast
11:35 PM 49.8 °F - 48.6 °F 95% 29.77 in 10.0 mi Calm Calm - N/A   Overcast
11:55 PM 49.3 °F - 48.4 °F 97% 29.77 in 10.0 mi Calm Calm - N/A   Overcast